Weather History for Siemreap, Cambodia

Change the Weather History Date:

Wednesday, February 19, 2014

  Actual Average Record
Temperature  
Mean Temperature 83 °F -  
Max Temperature 89 °F - - ()
Min Temperature 77 °F - - ()
Cooling Degree Days 18    
Growing Degree Days 33 (Base 50)    
Moisture  
Dew Point 74 °F    
Average Humidity 72    
Maximum Humidity 94    
Minimum Humidity 55    
Precipitation  
Precipitation 0.00 in - - ()
Sea Level Pressure  
Sea Level Pressure 29.82 in    
Wind  
Wind Speed 4 mph ()    
Max Wind Speed 8 mph    
Max Gust Speed -    
Visibility 5.6 miles    
Events      
T = Trace of Precipitation, MM = Missing Value Source: Averaged Metar Reports

Daily Weather History Graph

Daily Weather History Graph

Search for Another Location

Airport:

Trip Planner

Search our weather history database for the weather conditions in past years. The results will help you decide how hot, cold, wet, or windy it might be!

Date:

Astronomy

Feb. 19, 2014 Rise Set
Actual Time 6:25 AM ICT 6:11 PM ICT
Civil Twilight 6:04 AM ICT 6:32 PM ICT
Nautical Twilight 5:39 AM ICT 6:57 PM ICT
Astronomical Twilight 5:14 AM ICT 7:22 PM ICT
Moon 9:40 PM ICT (2/19) 8:59 AM ICT (2/19)
Length of Visible Light 12h 28m
Length of Day
11h 45m
Waning Gibbous, 84% of the Moon is Illuminated
Feb 19
Waning Gibbous
Feb 23
Last Quarter
Mar 1
New
Mar 8
First Quarter
Mar 17
Full

Hourly Weather History & Observations

Time (ICT) Temp. Heat Index Dew Point Humidity Pressure Visibility Wind Dir Wind Speed Gust Speed Precip Events Conditions
12:00 AM 77.0 °F - 75.2 °F 94% 29.83 in 5.0 mi WSW 5.8 mph - N/A   Unknown
12:30 AM 78.8 °F - 75.2 °F 89% 29.83 in 5.0 mi WSW 5.8 mph - N/A   Unknown
1:00 AM 78.8 °F - 75.2 °F 89% 29.83 in 5.0 mi West 5.8 mph - N/A   Scattered Clouds
7:00 AM 77.0 °F - 75.2 °F 94% 29.83 in 4.3 mi WNW 3.5 mph - N/A   Scattered Clouds
7:30 AM 77.0 °F - 75.2 °F 94% 29.86 in 4.3 mi NW 4.6 mph - N/A   Scattered Clouds
8:00 AM 78.8 °F - 75.2 °F 89% 29.86 in 4.3 mi Variable 3.5 mph - N/A   Scattered Clouds
8:30 AM 78.8 °F - 73.4 °F 83% 29.86 in 4.3 mi Variable 3.5 mph - N/A   Scattered Clouds
9:00 AM 80.6 °F 86.2 °F 75.2 °F 84% 29.89 in 4.3 mi WSW 4.6 mph - N/A   Scattered Clouds
9:30 AM 82.4 °F 88.2 °F 73.4 °F 74% 29.89 in 5.6 mi Variable 3.5 mph - N/A   Scattered Clouds
10:00 AM 84.2 °F 90.9 °F 73.4 °F 70% 29.89 in 5.6 mi WSW 4.6 mph - N/A   Scattered Clouds
10:30 AM 86.0 °F 91.8 °F 71.6 °F 62% 29.89 in 5.6 mi West 4.6 mph - N/A   Scattered Clouds
11:00 AM 87.8 °F 93.8 °F 71.6 °F 58% 29.89 in 6.2 mi Variable 3.5 mph - N/A   Scattered Clouds
11:30 AM 87.8 °F 93.8 °F 71.6 °F 58% 29.86 in 6.2 mi SW 4.6 mph - N/A   Scattered Clouds
12:00 PM 87.8 °F 93.8 °F 71.6 °F 58% 29.83 in 6.2 mi SSW 4.6 mph - N/A   Scattered Clouds
12:30 PM 89.6 °F 96.2 °F 71.6 °F 55% 29.83 in 6.2 mi West 4.6 mph - N/A   Scattered Clouds
1:00 PM 89.6 °F 96.2 °F 71.6 °F 55% 29.80 in 6.2 mi South 4.6 mph - N/A   Scattered Clouds
1:30 PM 89.6 °F 96.2 °F 71.6 °F 55% 29.80 in 6.2 mi Variable 3.5 mph - N/A   Scattered Clouds
2:00 PM 89.6 °F 98.2 °F 73.4 °F 59% 29.77 in 6.2 mi South 4.6 mph - N/A   Scattered Clouds
2:30 PM 89.6 °F 98.2 °F 73.4 °F 59% 29.77 in 6.2 mi SSW 6.9 mph - N/A   Scattered Clouds
3:00 PM 89.6 °F 98.2 °F 73.4 °F 59% 29.77 in 6.2 mi South 5.8 mph - N/A   Scattered Clouds
3:30 PM 89.6 °F 98.2 °F 73.4 °F 59% 29.74 in 6.2 mi South 8.1 mph - N/A   Scattered Clouds
4:00 PM 87.8 °F 93.8 °F 71.6 °F 58% 29.74 in 6.2 mi South 5.8 mph - N/A   Scattered Clouds
4:30 PM 87.8 °F 93.8 °F 71.6 °F 58% 29.74 in 6.2 mi Variable 3.5 mph - N/A   Scattered Clouds
5:00 PM 87.8 °F 93.8 °F 71.6 °F 58% 29.74 in 6.2 mi Variable 3.5 mph - N/A   Scattered Clouds
5:30 PM 87.8 °F 93.8 °F 71.6 °F 58% 29.74 in 6.2 mi Variable 3.5 mph - N/A   Scattered Clouds
6:00 PM 86.0 °F 93.4 °F 73.4 °F 66% 29.74 in 5.6 mi Variable 3.5 mph - N/A   Scattered Clouds
6:30 PM 86.0 °F 95.1 °F 75.2 °F 70% 29.77 in 5.6 mi East 4.6 mph - N/A   Scattered Clouds
7:00 PM 84.2 °F 92.3 °F 75.2 °F 74% 29.77 in 5.6 mi East 4.6 mph - N/A   Scattered Clouds
7:30 PM 82.4 °F 89.5 °F 75.2 °F 79% 29.80 in 5.6 mi East 3.5 mph - N/A   Scattered Clouds
8:00 PM 82.4 °F 89.5 °F 75.2 °F 79% 29.80 in 5.6 mi SE 3.5 mph - N/A   Partly Cloudy
8:30 PM 82.4 °F 89.5 °F 75.2 °F 79% 29.83 in 5.6 mi East 5.8 mph - N/A   Partly Cloudy
9:00 PM 80.6 °F 86.2 °F 75.2 °F 84% 29.83 in 5.6 mi NNE 4.6 mph - N/A   Partly Cloudy
9:30 PM 82.4 °F 89.5 °F 75.2 °F 79% 29.83 in 5.6 mi East 4.6 mph - N/A   Partly Cloudy
10:00 PM 80.6 °F 85.4 °F 73.4 °F 79% 29.86 in 5.6 mi East 6.9 mph - N/A   Partly Cloudy
10:30 PM 80.6 °F 85.4 °F 73.4 °F 79% 29.86 in 5.6 mi East 5.8 mph - N/A   Partly Cloudy
11:00 PM 80.6 °F 85.4 °F 73.4 °F 79% 29.86 in 5.6 mi East 6.9 mph - N/A   Unknown
11:30 PM 78.8 °F - 73.4 °F 83% 29.86 in 5.6 mi North 3.5 mph - N/A   Unknown